Voltar ao catálogo

COSMOS 1217 DEB

LostHEO
NORAD 26919·DEBRIS·🇷🇺 Russia

Lançado Oct 24, 1980 de Plesetsk Cosmodrome

Loading…

Próximas Passagens (próximas 24 horas)

TLE

ObsoletoSource: Space-Track

Época: Apr 13, 2023, 20:45 UTC

1 26919U 80085H   23103.86471375  .00000397  00000-0  00000+0 0  9996
2 26919  72.6846 288.1195 5203504 248.7902  49.4824  2.04877991191130

Acompanhe COSMOS 1217 DEB em tempo real com AllMySat

Download on the App Store